Theta_e
338 335 328 329 325 322 321 321 323 326 331 334 335 335 332 330 328 329 328 327 326 320 317 315 317 318 319 318 317 316 315 315 312 312 314 316 313 313 310 310 313 317 323
338 337 331 331 329 323 322 321 321 323 326 329 332 331 331 330 328 330 329 328 327 323 321 323 324 326 326 325 325 324 322 320 317 313 311 310 310 310 309 309 308 314 313
338 338 335 333 331 327 322 321 321 321 323 326 327 329 331 332 330 329 330 329 329 327 324 326 327 328 329 328 326 326 325 324 321 319 316 315 314 313 311 309 309 308 309
338 338 337 335 334 330 324 322 321 321 322 324 326 327 329 331 331 330 329 328 329 331 328 327 328 328 328 327 327 327 325 325 324 324 323 322 321 319 316 314 313 312 310
338 337 338 336 335 332 326 322 321 321 322 322 324 326 328 329 331 332 331 329 330 330 332 331 329 329 330 330 329 329 329 329 329 329 329 329 329 326 323 322 320 318 315
338 337 338 337 336 334 329 324 322 321 321 322 322 324 325 327 329 331 332 332 331 331 331 332 332 331 332 332 331 333 335 337 336 335 335 334 332 331 330 329 327 325 322
338 338 338 338 336 334 330 325 323 322 321 322 322 322 323 325 326 328 330 332 333 332 332 332 333 332 333 333 332 332 334 336 337 337 336 335 334 334 333 331 331 331 329
338 337 338 337 337 335 330 326 323 322 322 322 322 322 323 323 324 325 327 328 329 331 332 333 333 333 334 334 334 334 334 335 336 336 336 337 336 335 334 333 332 331 331
336 336 337 337 337 336 331 327 324 323 323 322 322 322 323 323 323 323 323 324 323 325 328 332 334 333 333 334 335 335 336 336 336 337 337 337 338 337 335 334 334 332 331
333 335 336 337 336 335 332 329 326 324 323 323 322 322 322 323 323 323 323 323 323 323 323 325 328 332 334 334 334 336 336 337 337 337 337 337 338 339 337 335 334 333 331
334 335 336 335 336 335 331 328 326 324 323 323 323 322 322 323 323 323 323 323 323 323 323 323 323 325 329 333 334 334 336 338 338 339 339 339 338 339 339 336 335 334 333
327 330 333 334 335 335 332 327 324 324 323 323 323 323 323 323 323 323 323 325 328 327 324 325 323 329 331 326 332 334 335 337 338 338 339 340 338 339 339 338 336 335 334
337 335 331 329 331 333 331 325 324 324 323 323 323 323 323 323 324 329 326 333 336 334 330 331 331 337 339 337 341 336 340 339 338 337 340 340 339 339 339 337 337 337 335
341 342 343 335 329 330 330 325 324 323 323 323 323 323 324 324 326 333 333 334 339 340 338 337 337 335 334 338 340 339 339 340 338 340 340 340 340 339 339 336 339 338 336
341 342 343 340 329 328 328 325 324 324 323 323 323 324 325 325 327 333 335 338 335 340 341 340 340 339 337 334 334 338 338 338 340 339 338 339 339 340 339 338 339 339 337
339 336 336 341 335 328 327 324 324 324 324 324 324 324 325 326 328 331 335 337 338 339 340 342 341 341 339 338 337 336 339 339 338 339 338 338 339 340 340 340 339 336 334
337 333 333 340 339 328 325 324 325 326 337 339 334 327 332 331 331 334 335 337 339 341 341 343 342 341 340 340 338 336 338 340 341 341 340 338 337 339 339 339 338 334 334
340 338 331 340 340 339 335 329 333 337 339 341 336 335 341 341 342 344 342 340 340 340 342 343 343 341 340 339 337 339 335 339 340 339 340 339 337 337 339 339 334 334 334
345 339 335 337 338 340 339 338 336 336 339 341 342 341 342 342 342 344 344 344 343 344 344 342 342 341 339 341 340 336 338 338 340 339 338 340 339 338 338 338 336 334 334
344 337 334 333 336 339 339 340 340 339 340 343 342 343 344 343 342 343 344 345 345 344 344 342 341 339 339 340 338 338 337 339 342 339 335 335 338 338 336 337 334 335 333
344 336 332 333 333 339 340 341 342 341 342 343 344 344 345 346 344 344 345 345 346 345 343 342 342 340 338 338 341 337 337 336 340 340 339 335 337 337 338 337 337 336 332
343 337 333 334 338 340 341 342 343 343 343 343 345 346 346 347 347 346 346 345 343 342 342 339 340 340 338 336 335 335 335 335 335 337 337 338 338 334 335 335 335 334 334
342 338 335 337 340 341 341 341 342 344 343 342 343 344 343 344 344 343 345 347 347 343 340 338 336 337 337 337 336 334 337 336 335 333 336 337 337 333 333 330 332 331 330
340 340 340 344 344 342 341 342 341 345 344 342 343 343 341 342 342 343 343 343 342 340 337 331 328 334 331 333 334 334 334 336 336 335 333 335 335 335 332 331 329 329 329
341 342 342 344 345 343 343 344 345 345 342 340 341 342 341 340 339 334 336 343 341 340 339 335 330 327 328 326 334 334 334 335 333 334 332 332 335 334 333 335 332 332 332
331 336 337 338 340 340 340 341 342 343 342 343 341 341 340 340 340 340 340 338 339 339 337 336 335 330 327 327 334 333 332 336 330 331 335 333 334 335 334 335 332 334 333
Wind_Speed
29 25 23 21 19 18 18 18 18 18 17 16 15 15 14 14 14 16 17 18 19 20 20 20 20 20 20 20 20 22 23 23 23 19 17 14 14 11 11 12 12 13 12
32 28 24 22 20 18 18 18 18 18 17 17 16 15 15 14 15 15 17 18 19 19 20 21 21 19 19 18 20 22 23 22 22 20 17 15 16 16 16 16 15 13 13
31 29 26 23 20 19 18 17 17 17 17 17 17 16 15 14 15 15 15 17 18 19 19 19 19 18 18 18 20 20 20 21 21 20 19 17 18 18 18 18 17 16 15
30 29 27 24 21 19 18 17 16 16 16 16 15 15 14 13 13 14 14 15 16 17 17 17 16 16 16 17 18 19 19 19 19 20 19 19 18 19 19 18 17 18 17
30 28 26 24 21 18 17 16 16 15 15 14 14 14 13 12 12 12 12 13 13 14 14 14 13 13 13 14 16 17 18 19 19 19 19 19 19 18 17 17 17 17 18
31 29 26 23 20 18 16 16 15 14 14 13 12 12 12 11 10 10 11 11 11 11 11 11 11 10 10 10 11 13 16 18 18 18 18 17 17 18 17 16 16 16 16
30 29 26 23 20 18 16 16 14 14 13 12 12 11 11 10 9 9 9 9 9 9 9 9 8 8 8 8 8 9 10 11 12 14 14 15 15 17 16 15 14 14 14
28 28 27 25 22 19 17 15 15 14 13 12 12 11 10 10 9 8 7 7 7 6 6 6 7 6 6 5 3 4 5 5 6 8 10 11 13 14 15 14 13 12 12
27 27 28 25 22 19 18 17 16 14 13 12 12 11 10 9 8 7 6 5 5 5 5 5 5 5 5 6 3 1 1 2 2 5 5 7 10 12 12 12 12 11 10
26 25 26 25 24 22 20 18 16 14 14 12 11 11 10 8 7 6 5 4 3 3 3 3 1 2 4 5 5 6 4 5 4 5 6 6 7 10 11 11 11 10 10
24 24 25 25 24 23 22 20 19 17 15 14 13 11 10 9 7 6 4 2 2 2 3 3 2 2 3 5 6 7 8 7 9 10 9 11 10 10 12 10 10 10 10
23 23 23 25 25 24 23 22 21 19 18 16 14 13 12 9 8 7 6 4 3 1 1 2 2 3 4 4 5 7 7 9 9 13 15 12 12 11 13 12 10 11 10
24 23 24 27 26 25 24 23 22 21 20 18 16 15 13 12 11 10 9 7 5 3 3 5 4 2 3 1 2 5 7 9 11 12 10 11 11 12 14 13 11 11 11
26 20 20 25 29 27 27 26 24 24 21 19 17 16 16 14 14 11 11 10 6 3 2 1 3 4 3 4 4 3 6 8 10 11 11 10 10 10 12 12 11 10 10
25 21 24 22 28 29 29 27 26 23 20 18 18 18 18 17 16 15 14 11 9 8 5 4 4 4 6 5 7 8 9 9 10 11 12 10 9 10 12 13 11 10 13
20 22 17 23 24 29 28 27 25 23 20 20 19 19 19 18 18 18 16 16 11 9 7 7 8 9 10 11 12 13 10 10 12 14 13 11 10 10 11 12 12 11 13
22 24 28 28 23 28 29 29 25 22 19 16 20 18 19 19 17 19 19 15 12 10 10 10 10 12 11 12 13 12 14 14 15 14 13 14 11 11 10 9 8 8 11
25 27 29 30 27 25 25 25 25 22 20 17 16 19 16 16 17 15 15 15 10 13 14 13 14 15 15 15 16 14 15 17 16 13 16 15 14 14 13 8 6 8 10
29 27 30 29 31 29 25 21 22 22 23 20 17 18 18 20 19 18 17 15 14 17 18 18 17 17 17 14 16 15 16 19 16 18 17 14 14 14 13 8 7 9 12
33 27 27 27 29 34 30 26 23 25 25 25 24 23 22 23 25 24 20 21 18 20 19 19 20 19 17 15 17 17 18 19 19 19 17 17 18 14 13 11 9 10 11
38 32 31 30 31 36 36 28 24 25 28 26 25 22 20 20 20 19 19 20 21 23 21 19 20 20 18 18 19 19 20 19 22 23 23 21 15 8 8 7 11 9 8
40 37 36 34 34 36 33 30 27 26 26 26 25 23 23 24 23 24 24 22 19 22 25 21 17 16 16 17 17 18 21 21 20 15 18 14 10 7 6 7 10 12 9
36 36 35 33 38 37 37 36 33 29 28 30 29 30 28 31 32 30 26 25 22 22 22 14 14 13 15 17 17 16 13 12 17 19 19 12 11 8 7 5 9 5 8
12 21 26 26 30 31 35 34 36 30 19 25 25 25 23 21 19 22 24 27 26 22 21 16 22 13 19 22 23 20 18 20 18 14 14 11 8 10 9 6 5 5 5
1 5 10 10 16 28 29 27 28 25 21 25 20 26 24 21 21 27 28 25 22 19 22 18 20 25 29 23 25 20 18 18 17 16 16 15 11 12 12 11 9 10 10
17 14 15 11 16 11 4 3 2 3 1 4 5 9 7 8 9 11 14 14 14 16 17 21 19 21 24 30 26 21 19 18 14 15 14 17 17 14 14 15 14 14 13
Wind_Direction
171 163 157 154 152 147 140 137 137 135 137 139 137 134 130 125 118 108 98 91 87 86 89 95 99 100 99 96 89 84 80 74 73 75 74 76 65 71 67 69 73 73 78
165 163 160 159 156 151 144 142 141 140 140 140 140 140 137 128 118 112 103 96 90 91 94 97 98 97 96 94 91 85 78 71 68 68 67 63 63 63 62 60 59 66 64
170 164 162 164 161 154 148 147 145 143 143 142 141 140 137 128 118 114 109 101 95 94 98 100 99 97 91 86 82 77 73 69 67 64 63 60 59 58 59 57 56 55 55
172 168 165 166 165 159 154 151 148 144 144 143 140 137 134 128 121 115 111 106 102 99 102 103 100 95 88 84 83 79 74 69 63 61 60 57 56 54 52 52 53 52 53
175 173 170 169 168 165 159 156 153 150 147 144 142 139 134 131 127 122 118 113 108 105 104 104 102 100 94 88 85 82 79 75 69 63 58 53 48 49 49 49 50 50 51
175 176 173 171 172 171 166 162 159 156 152 148 144 140 137 137 136 133 127 121 116 111 107 107 108 106 98 86 83 86 83 76 70 64 58 51 44 41 40 42 45 47 48
176 177 174 175 177 178 175 170 168 164 158 156 151 147 145 145 144 143 139 132 127 122 117 115 114 116 110 95 81 86 85 75 73 63 56 52 45 38 32 32 36 41 43
181 180 178 179 181 183 182 180 176 173 170 165 160 157 157 155 152 149 147 146 134 132 132 130 131 131 140 125 105 83 94 73 66 51 46 39 35 31 28 22 23 29 35
185 185 184 184 185 188 190 190 186 183 180 177 173 168 170 167 162 159 150 145 132 130 148 147 151 149 157 167 194 238 35 14 25 23 18 19 15 16 20 16 11 12 19
184 189 190 189 191 194 195 196 196 193 191 190 186 184 183 179 178 176 168 148 114 96 97 105 126 179 189 189 207 234 263 287 308 335 344 330 348 355 2 6 4 0 360
183 189 197 200 201 201 200 199 199 200 200 200 199 198 198 192 189 188 185 160 108 74 56 33 18 323 250 223 218 229 243 264 283 308 307 306 311 335 342 350 353 350 348
185 193 203 210 211 210 208 208 206 206 206 206 204 207 208 203 201 198 196 188 186 179 109 44 15 352 309 262 238 238 246 253 274 292 287 298 309 312 324 332 339 342 337
180 190 203 213 214 218 219 215 214 214 213 213 210 213 213 212 215 211 191 183 158 128 106 77 78 78 12 351 356 247 258 270 301 312 304 322 310 293 313 322 328 333 330
189 198 206 210 212 218 223 222 219 219 218 219 219 219 221 221 222 216 206 199 190 176 176 102 62 36 356 328 322 313 295 290 297 306 300 318 315 303 308 314 317 327 331
200 212 217 204 210 215 222 224 224 224 224 228 228 228 230 232 235 230 229 225 221 226 235 263 296 307 322 326 326 297 309 305 306 307 303 304 305 292 300 311 324 334 338
206 229 214 219 218 218 224 227 229 225 228 231 233 234 240 241 243 245 244 240 236 236 258 275 276 279 274 286 290 300 310 312 307 309 305 304 297 289 298 311 326 333 340
211 226 226 218 215 220 222 225 229 223 222 235 234 234 241 243 245 250 250 251 257 264 260 272 273 271 275 279 295 290 292 297 304 309 308 303 301 285 287 310 324 329 318
218 232 229 217 213 213 217 221 225 223 232 241 238 227 234 239 242 252 260 266 276 275 272 266 271 267 269 280 293 287 299 304 299 303 301 300 298 290 299 302 313 305 307
224 218 218 218 216 216 215 220 230 237 237 241 240 236 241 246 251 255 263 272 272 270 277 273 268 263 269 276 293 302 295 303 301 311 306 286 305 286 287 264 282 299 307
218 213 215 220 221 222 220 223 229 234 239 244 246 249 255 255 254 256 264 266 269 259 275 280 279 278 284 284 293 289 286 290 292 300 301 295 291 283 278 268 256 265 293
212 210 209 221 220 223 223 227 232 239 244 247 253 259 266 268 272 272 277 282 270 270 284 285 288 287 294 294 289 294 289 295 297 300 296 290 283 272 257 268 255 254 271
213 215 208 220 224 223 224 222 228 237 250 261 262 260 264 267 271 276 278 286 274 270 269 283 286 295 283 295 294 296 302 299 311 327 308 275 263 237 250 252 254 259 264
226 228 226 232 228 224 225 230 232 236 246 254 257 253 254 257 260 264 269 269 259 257 254 276 308 304 289 282 280 276 282 280 294 304 311 287 248 238 249 262 256 246 282
245 249 252 251 240 233 226 235 240 241 254 261 257 258 254 254 260 265 273 273 270 264 257 263 303 292 279 286 265 258 259 273 278 294 283 324 219 223 226 236 236 239 276
186 261 255 266 252 241 240 232 240 244 241 249 248 254 262 263 249 253 264 266 275 275 263 263 280 246 251 270 260 254 263 264 270 273 278 276 244 230 227 243 244 247 261
63 56 51 39 68 75 100 158 172 218 100 265 282 287 326 323 313 295 287 293 282 276 269 270 272 263 250 248 258 260 256 261 281 283 259 258 259 241 228 232 235 244 262